This is the latest recevied weather packets stored in our database for station/object W4JCW. If no packets are shown the sender has not sent any weather packets the latest 10 day(s).
| Time | Temp. | Humidity | Pressure | Rain* | Wind** | Luminosity | Snow |
|---|---|---|---|---|---|---|---|
| 1777926135 | 26.67° C | 30% | 1013 hPa | 0 mm | - | 574 W/m² | - |
| 1777925832 | 27.22° C | 32% | 1013.2 hPa | 0 mm | - | 560 W/m² | - |
| 1777925529 | 27.22° C | 32% | 1013.3 hPa | 0 mm | - | 614 W/m² | - |
| 1777925227 | 27.22° C | 32% | 1013.2 hPa | 0 mm | - | 675 W/m² | - |
| 1777924922 | 27.22° C | 33% | 1013.2 hPa | 0 mm | - | 681 W/m² | - |
| 1777924619 | 27.78° C | 30% | 1013.5 hPa | 0 mm | - | 641 W/m² | - |
| 1777924315 | 27.22° C | 32% | 1013.3 hPa | 0 mm | - | 637 W/m² | - |
| 1777924012 | 27.22° C | 32% | 1013.5 hPa | 0 mm | - | 728 W/m² | - |
| 1777923708 | 27.22° C | 32% | 1013.4 hPa | 0 mm | - | 759 W/m² | - |
| 1777923404 | 26.67° C | 29% | 1013.7 hPa | 0 mm | - | 786 W/m² | - |
| 1777923103 | 27.22° C | 32% | 1013.7 hPa | 0 mm | - | 823 W/m² | - |
| 1777922800 | 27.22° C | 33% | 1013.8 hPa | 0 mm | - | 836 W/m² | - |
| 1777922498 | 27.22° C | 32% | 1013.7 hPa | 0 mm | - | 845 W/m² | - |
| 1777922196 | 26.67° C | 31% | 1013.6 hPa | 0 mm | - | 826 W/m² | - |
| 1777921892 | 27.22° C | 29% | 1014 hPa | 0 mm | - | 878 W/m² | - |
| 1777921588 | 26.67° C | 30% | 1014 hPa | 0 mm | - | 892 W/m² | - |
| 1777921285 | 26.67° C | 27% | 1014 hPa | 0 mm | - | 859 W/m² | - |
| 1777920981 | 26.67° C | 26% | 1014.1 hPa | 0 mm | - | 904 W/m² | - |
| 1777920678 | 26.67° C | 25% | 1014.2 hPa | 0 mm | - | 916 W/m² | - |
| 1777920374 | 26.67° C | 24% | 1014.2 hPa | 0 mm | - | 871 W/m² | - |
| 1777920069 | 26.11° C | 28% | 1014.2 hPa | 0 mm | - | 905 W/m² | - |
| 1777919767 | 26.67° C | 25% | 1014 hPa | 0 mm | - | 860 W/m² | - |
| 1777919464 | 26.67° C | 27% | 1014.4 hPa | 0 mm | - | 901 W/m² | - |
| 1777919161 | 26.11° C | 27% | 1014.5 hPa | 0 mm | - | 856 W/m² | - |
| 1777918859 | 26.11° C | 28% | 1014.3 hPa | 0 mm | - | 872 W/m² | - |
* Rain latest hour (hover to see other rain measurements)
** Current wind speed in m/s (hover to see current wind gust speed)